Flight Track Log - Related Links

Times and Time Zones

All times are in EST time to prevent confusion due to time zone crossing. See the SWA542 flight status page for this flight to view local times or setup timezone preferences in your user account.

Time Position Orientation Groundspeed Altitude Reporting Facility
EST Latitude Longitude Course Direction KTS MPH feet Rate Location/Type
Wed 09:56:55 AM 38.8000 -90.4000 336° Northwest 195 224 3,700  Level Gateway (St. Louis) TRACON
Wed 09:58:01 AM 38.8667 -90.4000 360° North 241 277 6,600 2,687 Climbing Gateway (St. Louis) TRACON
Wed 09:59:09 AM 38.8978 -90.3186 64° Northeast 276 318 9,700 2,545 Climbing Kansas City Center
Wed 10:00:13 AM 38.8856 -90.1958 97° East 342 394 12,200 2,928 Climbing Kansas City Center
Wed 10:01:14 AM 38.8664 -90.0553 100° East 373 429 15,800 3,541 Climbing Kansas City Center
Wed 10:02:15 AM 38.8444 -89.8872 99° East 404 465 19,400 2,952 Climbing Kansas City Center
Wed 10:03:18 AM 38.8233 -89.7350 100° East 425 489 21,900 1,694 Climbing Kansas City Center
Wed 10:04:19 AM 38.8014 -89.5775 100° East 444 511 22,900 1,008 Climbing Kansas City Center
Wed 10:05:23 AM 38.8042 -89.4133 89° East 464 534 24,000 528 Climbing Kansas City Center
Wed 10:06:24 AM 38.8247 -89.2528 81° East 459 528 24,000  Level Kansas City Center
Wed 10:07:27 AM 38.8447 -89.0917 81° East 460 529 24,000  Level Kansas City Center
Wed 10:08:28 AM 38.8714 -88.8989 80° East 460 529 24,000 532 Level Kansas City Center
Wed 10:09:31 AM 38.8925 -88.7358 81° East 463 533 25,100 1,597 Climbing Kansas City Center
Wed 10:10:32 AM 38.9097 -88.5850 82° East 468 539 27,300 2,213 Climbing Kansas City Center
Wed 10:11:33 AM 38.9481 -88.3828 76° East 479 551 29,600 1,872 Climbing Kansas City Center
Wed 10:12:37 AM 38.9969 -88.2139 70° East 494 568 31,200 1,597 Climbing Kansas City Center
Wed 10:13:37 AM 39.0456 -88.0375 70° East 510 587 32,900 1,500 Climbing Kansas City Center
Wed 10:14:29 AM 39.0836 -87.8964 71° East 521 600 34,000 1,105 Climbing Indianapolis Center
Wed 10:15:31 AM 39.1328 -87.7186 70° East 522 601 35,000 1,392 Climbing Indianapolis Center
Wed 10:16:34 AM 39.1947 -87.5347 66° East 518 596 36,900 1,728 Climbing Indianapolis Center
Wed 10:17:36 AM 39.2497 -87.3706 67° East 509 586 38,600 1,016 Climbing Indianapolis Center
Wed 10:18:38 AM 39.3025 -87.2089 67° East 497 572 39,000 194 Climbing Indianapolis Center
Wed 10:19:40 AM 39.3656 -87.0178 67° East 489 563 39,000  Level Indianapolis Center
Wed 10:20:41 AM 39.4189 -86.8561 67° East 489 563 39,000  Level Indianapolis Center
Wed 10:21:43 AM 39.4711 -86.6956 67° East 489 563 39,000  Level Indianapolis Center
Wed 10:22:45 AM 39.5228 -86.5353 67° East 489 563 39,000 97 Level Indianapolis Center
Wed 10:23:47 AM 39.5728 -86.3786 67° East 484 557 39,200 532 Climbing Indianapolis Center
Wed 10:24:49 AM 39.6333 -86.1906 67° East 483 556 40,100 726 Climbing Indianapolis Center
Wed 10:25:51 AM 39.6847 -86.0292 67° East 492 566 40,700 435 Climbing Indianapolis Center
Wed 10:26:53 AM 39.7408 -85.8631 66° East 505 581 41,000 145 Climbing Indianapolis Center
Wed 10:27:55 AM 39.8092 -85.6986 62° Northeast 517 595 41,000  Level Indianapolis Center
Wed 10:28:57 AM 39.8881 -85.5039 62° Northeast 516 594 41,000  Level Indianapolis Center
Wed 10:30:00 AM 39.9536 -85.3417 62° Northeast 513 590 41,000  Level Indianapolis Center
Wed 10:31:02 AM 40.0175 -85.1822 62° Northeast 506 582 41,000  Level Indianapolis Center
Wed 10:32:04 AM 40.0800 -85.0242 63° Northeast 499 574 41,000  Level Indianapolis Center
Wed 10:33:06 AM 40.1433 -84.8608 63° Northeast 498 573 41,000  Level Indianapolis Center
Wed 10:34:08 AM 40.2078 -84.6994 62° Northeast 498 573 41,000  Level Indianapolis Center
Wed 10:35:10 AM 40.2831 -84.5086 63° Northeast 498 573 41,000  Level Indianapolis Center
Wed 10:36:12 AM 40.3431 -84.3508 63° Northeast 489 563 41,000  Level Indianapolis Center
Wed 10:37:14 AM 40.4047 -84.1939 63° Northeast 486 559 41,000  Level Indianapolis Center
Wed 10:38:16 AM 40.4650 -84.0378 63° Northeast 483 556 41,000  Level Indianapolis Center
Wed 10:39:18 AM 40.5253 -83.8800 63° Northeast 483 556 41,000  Level Indianapolis Center
Wed 10:40:20 AM 40.5872 -83.7178 63° Northeast 489 563 41,000  Level Indianapolis Center
Wed 10:41:22 AM 40.6483 -83.5561 63° Northeast 490 564 41,000  Level Indianapolis Center
Wed 10:42:24 AM 40.7219 -83.3600 64° Northeast 493 567 41,000  Level Indianapolis Center
Wed 10:43:26 AM 40.7861 -83.1894 64° Northeast 498 573 41,000  Level Indianapolis Center
Wed 10:44:29 AM 40.8475 -83.0236 64° Northeast 499 574 41,000  Level Indianapolis Center
Wed 10:45:21 AM 40.8997 -82.8853 63° Northeast 500 575 41,000  Level Cleveland Center
Wed 10:46:23 AM 40.9619 -82.7161 64° Northeast 504 580 41,000  Level Cleveland Center
Wed 10:47:25 AM 41.0242 -82.5458 64° Northeast 505 581 41,000  Level Cleveland Center
Wed 10:48:27 AM 41.0869 -82.3747 64° Northeast 509 586 41,000  Level Cleveland Center
Wed 10:49:29 AM 41.1478 -82.2042 65° Northeast 509 586 41,000  Level Cleveland Center
Wed 10:50:31 AM 41.1769 -82.0150 78° East 517 595 41,000  Level Cleveland Center
Wed 10:51:33 AM 41.1814 -81.8261 88° East 514 592 41,000  Level Cleveland Center
Wed 10:52:35 AM 41.1867 -81.5961 88° East 511 588 41,000  Level Cleveland Center
Wed 10:53:37 AM 41.1894 -81.4128 89° East 509 586 41,000  Level Cleveland Center
Wed 10:54:39 AM 41.1925 -81.2419 89° East 507 583 41,000  Level Cleveland Center
Wed 10:55:41 AM 41.1964 -81.0228 89° East 506 582 41,000  Level Cleveland Center
Wed 10:56:42 AM 41.2008 -80.8339 88° East 505 581 41,000  Level Cleveland Center
Wed 10:57:44 AM 41.2031 -80.6500 89° East 503 579 41,000  Level Cleveland Center
Wed 10:59:48 AM 41.2075 -80.2675 92° East 493 567 41,000  Level Cleveland Center
Wed 11:00:50 AM 41.2106 -80.0836 89° East 495 570 41,000  Level Cleveland Center
Wed 11:01:52 AM 41.2128 -79.8872 89° East 499 574 41,000  Level Cleveland Center
Wed 11:02:53 AM 41.2136 -79.7056 90° East 498 573 41,000  Level Cleveland Center
Wed 11:03:55 AM 41.2150 -79.5314 89° East 498 573 41,000  Level Cleveland Center
Wed 11:04:57 AM 41.2167 -79.3472 89° East 498 573 41,000  Level Cleveland Center
Wed 11:05:59 AM 41.2175 -79.1581 90° East 496 571 41,000  Level Cleveland Center
Wed 11:07:01 AM 41.2172 -78.9728 90° East 498 573 41,000  Level Cleveland Center
Wed 11:08:02 AM 41.2172 -78.7581 90° East 501 577 41,000 -683 Level Cleveland Center
Wed 11:09:04 AM 41.2164 -78.5789 90° East 490 564 39,600 -1,887 Descending Cleveland Center
Wed 11:10:06 AM 41.2175 -78.3978 89° East 489 563 37,100 -2,758 Descending Cleveland Center
Wed 11:11:08 AM 41.2147 -78.1997 91° East 492 566 33,900 -2,000 Descending Cleveland Center
Wed 11:12:09 AM 41.2000 -78.0158 96° East 498 573 33,000 -439 Descending Cleveland Center
Wed 11:13:11 AM 41.1767 -77.8378 100° East 495 570 33,000  Level Cleveland Center
Wed 11:14:13 AM 41.1547 -77.6592 99° East 495 570 33,000  Level Cleveland Center
Wed 11:15:15 AM 41.1261 -77.4833 102° East 493 567 33,000  Level Cleveland Center
Wed 11:16:16 AM 41.0956 -77.3036 103° East 499 574 33,000 -927 Level Cleveland Center
Wed 11:17:18 AM 41.0603 -77.0861 102° East 501 577 31,100 -2,000 Descending Cleveland Center
Wed 11:18:28 AM 41.0297 -76.9022 102° East 495 570 28,600 -2,262 Descending New York Center
Wed 11:19:28 AM 41.0011 -76.7292 102° East 495 570 26,200 -2,400 Descending New York Center
Wed 11:20:28 AM 40.9719 -76.5617 103° East 483 556 23,800 -2,400 Descending New York Center
Wed 11:21:28 AM 40.9444 -76.3972 102° East 465 535 21,400 -1,800 Descending New York Center
Wed 11:22:28 AM 40.9183 -76.2414 102° East 452 520 20,200 -1,500 Descending New York Center
Wed 11:23:28 AM 40.8853 -76.0986 107° East 426 490 18,400 -2,100 Descending New York Center
Wed 11:24:28 AM 40.8503 -75.9478 107° East 400 460 16,000 -2,200 Descending New York Center
Wed 11:25:28 AM 40.8164 -75.8136 108° East 388 447 14,000 -1,550 Descending New York Center
Wed 11:26:28 AM 40.7881 -75.6964 108° East 378 435 12,900 -500 Descending New York Center
Wed 11:27:28 AM 40.7558 -75.5706 109° East 372 428 13,000  Climbing New York Center
Wed 11:28:28 AM 40.7256 -75.4425 107° East 372 428 12,900 -50 Descending New York Center
Wed 11:29:28 AM 40.6972 -75.3119 106° East 372 428 12,900 50 Level New York Center
Wed 11:30:28 AM 40.6731 -75.1817 104° East 372 428 13,000 -908 Climbing New York Center
Wed 11:31:27 AM 40.6103 -75.0711 127° Southeast 349 402 11,100 -1,513 Descending New York Center
Wed 11:32:27 AM 40.5556 -74.9694 125° Southeast 340 391 10,000 -550 Descending New York Center
Wed 11:33:27 AM 40.5225 -74.8472 110° East 346 398 10,000  Level New York Center
Wed 11:34:27 AM 40.4886 -74.7414 113° Southeast 346 398 10,000 66 Level New York Center
Wed 11:34:58 AM 40.4667 -74.6667 111° Southeast 349 402 10,100  Climbing New York TRACON
Wed 11:35:58 AM 40.4333 -74.5500 111° Southeast 348 400 10,000 -526 Descending New York TRACON
Wed 11:36:52 AM 40.4500 -74.4333 79° East 352 405 9,100 -1,400 Descending New York TRACON
Wed 11:37:58 AM 40.4833 -74.3167 69° East 334 384 7,200 -1,048 Descending New York TRACON
Wed 11:38:58 AM 40.5167 -74.2000 69° East 304 350 6,900 -850 Descending New York TRACON
Wed 11:39:58 AM 40.5500 -74.1000 66° East 285 328 5,500 -1,350 Descending New York TRACON
Wed 11:40:58 AM 40.6000 -74.0167 52° Northeast 289 333 4,200 -1,200 Descending New York TRACON
Wed 11:41:58 AM 40.6667 -73.9667 30° Northeast 248 285 3,100 -1,041 Descending New York TRACON
Wed 11:42:59 AM 40.7167 -73.9333 27° Northeast 195 224 2,100 -1,140 Descending New York TRACON
Wed 11:43:59 AM 40.7500 -73.9000 37° Northeast 156 180 800 -1,300 Descending New York TRACON

Login

Don't have an account? Register now (free) for customized features, flight alerts, and more!